1512360000.57,38165,3.38,72696.3,-15.63,-37.39,-36.49,0,*6E
1512360001.82,38166,3.38,72702.8,-15.63,-37.27,-36.61,0,*68
1512360003.05,38167,3.38,72700.0,-15.63,-37.45,-36.61,0,*6D
1512360004.29,38168,3.38,72698.5,-15.63,-37.45,-36.49,0,*68
1512360005.53,38169,3.38,72696.5,-15.63,-37.45,-36.61,0,*63
1512360006.75,38170,3.38,72698.8,-15.63,-37.27,-36.43,0,*6F
1512360007.99,38171,3.38,72702.0,-15.63,-37.45,-36.61,0,*6A
1512360009.23,38172,3.38,72694.5,-15.63,-37.27,-36.49,0,*67
1512360010.47,38173,3.38,72696.5,-15.63,-37.27,-36.49,0,*66
1512360011.71,38174,3.38,72696.0,-15.63,-37.45,-36.61,0,*6F
1512360012.96,38175,3.38,72694.8,-15.63,-37.21,-36.31,0,*69
1512360014.2,38176,3.38,72698.0,-15.63,-37.39,-36.43,0,*66
1512360015.47,38177,3.38,72700.3,-15.63,-37.39,-36.49,0,*6D
1512360016.75,38178,3.38,72700.5,-15.63,-37.21,-36.25,0,*61
1512360017.99,38179,3.38,72698.5,-15.65,-37.27,-36.19,0,*6F
1512360019.23,38180,3.38,72698.8,-15.61,-37.27,-36.31,0,*67
1512360020.47,38181,3.38,72698.3,-15.63,-37.39,-36.31,0,*6B
1512360021.74,38182,3.38,72702.5,-15.61,-37.45,-36.61,0,*64
1512360022.98,38183,3.38,72702.8,-15.63,-37.57,-36.61,0,*64
1512360024.22,38184,3.38,72700.3,-15.63,-37.63,-36.67,0,*62
1512360025.46,38185,3.38,72702.5,-15.63,-37.57,-36.79,0,*6B
1512360026.68,38186,3.38,72702.8,-15.63,-37.57,-36.67,0,*67
1512360027.92,38187,3.38,72700.8,-15.63,-37.57,-36.79,0,*69
1512360029.17,38188,3.38,72698.5,-15.63,-37.21,-36.31,0,*6B
1512360030.44,38189,3.38,72696.0,-15.65,-37.09,-36.31,0,*66
1512360031.7,38190,3.38,72700.5,-15.65,-37.45,-36.49,0,*69
1512360032.97,38191,3.38,72702.0,-15.65,-37.33,-36.49,0,*69
1512360034.24,38192,3.38,72700.8,-15.63,-37.39,-36.49,0,*66
1512360035.48,38193,3.38,72702.0,-15.63,-37.27,-36.49,0,*68
1512360036.75,38194,3.38,72698.0,-15.63,-37.39,-36.25,0,*6A
1512360038.02,38195,3.38,72696.0,-15.63,-37.09,-36.25,0,*68
1512360039.26,38196,3.38,72700.0,-15.63,-37.03,-36.13,0,*64
1512360040.53,38197,3.38,72700.0,-15.63,-37.09,-36.13,0,*6F
1512360041.78,38198,3.38,72694.0,-15.63,-36.85,-35.95,0,*68
1512360043.01,38199,3.38,72702.0,-15.63,-36.85,-35.89,0,*64
1512360044.29,38200,3.38,72698.5,-15.61,-36.85,-35.95,0,*68
1512360045.54,38201,3.38,72702.0,-15.63,-36.85,-35.95,0,*6B
1512360046.81,38202,3.38,72698.3,-15.61,-36.91,-36.07,0,*67
1512360048.08,38203,3.38,72702.0,-15.61,-37.03,-36.25,0,*6C
1512360049.38,38204,3.38,72698.8,-15.61,-37.09,-36.25,0,*61
1512360050.62,38205,3.38,72698.0,-15.61,-37.03,-36.07,0,*6A
1512360051.91,38206,3.38,72698.8,-15.61,-37.09,-36.13,0,*66
1512360053.12,38207,3.38,72698.0,-15.59,-37.03,-36.07,0,*63
1512360054.35,38208,3.38,72698.8,-15.59,-37.33,-36.37,0,*6C
1512360055.59,38209,3.38,72700.5,-15.61,-37.27,-36.43,0,*60
1512360056.83,38210,3.38,72698.5,-15.59,-37.21,-36.19,0,*6A
1512360058.07,38211,3.38,72700.8,-15.59,-37.39,-36.43,0,*6D
1512360059.33,38212,3.38,72704.0,-15.59,-37.51,-36.61,0,*60
1512360060.54,38213,3.38,72700.0,-15.59,-37.33,-36.43,0,*65
1512360061.76,38214,3.38,72700.3,-15.59,-37.33,-36.55,0,*65
1512360063.0,38215,3.38,72700.8,-15.59,-37.51,-36.55,0,*60
1512360064.24,38216,3.38,72702.0,-15.59,-37.51,-36.73,0,*67
1512360065.48,38217,3.38,72700.3,-15.59,-37.39,-36.55,0,*6C
1512360066.72,38218,3.38,72702.5,-15.59,-37.15,-36.25,0,*6A
1512360067.98,38219,3.38,72696.8,-15.59,-37.21,-36.37,0,*6F
1512360069.25,38220,3.38,72700.8,-15.61,-37.45,-36.49,0,*65
1512360070.49,38221,3.38,72700.0,-15.59,-37.15,-36.25,0,*60
1512360071.7,38222,3.38,72698.0,-15.59,-37.03,-36.01,0,*62
1512360072.94,38223,3.38,72696.8,-15.59,-36.61,-35.71,0,*62
1512360074.15,38224,3.38,72702.0,-15.59,-37.15,-36.07,0,*65
1512360075.36,38225,3.38,72696.5,-15.59,-37.15,-36.19,0,*6B
1512360076.6,38226,3.38,72698.5,-15.57,-37.03,-36.07,0,*6E
1512360077.85,38227,3.38,72694.5,-15.57,-36.85,-35.89,0,*65
1512360079.06,38228,3.38,72696.8,-15.59,-37.15,-36.19,0,*66
1512360080.35,38229,3.38,72696.3,-15.57,-37.21,-36.37,0,*62
1512360081.61,38230,3.38,72696.5,-15.57,-37.33,-36.37,0,*69
1512360082.82,38231,3.38,72696.3,-15.59,-37.33,-36.43,0,*65
1512360084.07,38232,3.38,72702.5,-15.57,-37.33,-36.55,0,*6F
1512360085.34,38233,3.38,72702.0,-15.57,-37.39,-36.55,0,*64
1512360086.58,38234,3.38,72698.3,-15.57,-37.03,-36.19,0,*62
1512360087.82,38235,3.38,72694.3,-15.57,-36.55,-35.71,0,*6C
1512360089.05,38236,3.38,72694.3,-15.53,-36.67,-35.77,0,*6C
1512360090.31,38237,3.38,72696.5,-15.53,-37.09,-36.01,0,*66
1512360091.53,38238,3.38,72696.3,-15.53,-36.97,-36.19,0,*66
1512360092.81,38239,3.38,72692.5,-15.53,-36.91,-36.13,0,*6B
1512360094.08,38240,3.38,72696.3,-15.53,-36.79,-36.13,0,*63
1512360095.33,38241,3.38,72696.8,-15.53,-36.97,-36.13,0,*62
1512360096.55,38242,3.38,72698.5,-15.53,-37.27,-36.31,0,*6B
1512360097.79,38243,3.38,72698.3,-15.53,-37.33,-36.37,0,*69
1512360099.02,38244,3.38,72700.5,-15.53,-37.27,-36.55,0,*6F
1512360100.27,38245,3.38,72700.8,-15.53,-37.27,-36.49,0,*63
1512360101.5,38246,3.38,72702.5,-15.53,-37.33,-36.55,0,*68
1512360102.72,38247,3.38,72700.0,-15.53,-37.45,-36.55,0,*68
1512360103.97,38248,3.38,72702.0,-15.51,-37.27,-36.55,0,*61
1512360105.22,38249,3.38,72702.3,-15.53,-37.27,-36.49,0,*6F
1512360106.45,38250,3.38,72702.8,-15.53,-37.33,-36.55,0,*6F
1512360107.69,38251,3.38,72698.8,-15.53,-37.45,-36.79,0,*61
1512360108.92,38252,3.38,72702.5,-15.53,-37.33,-36.55,0,*6D
1512360110.14,38253,3.44,72706.0,-15.53,-37.45,-36.55,0,*6D
1512360111.37,38254,3.38,72702.0,-15.53,-37.33,-36.67,0,*6A
1512360112.62,38255,3.38,72698.8,-15.53,-37.51,-36.67,0,*6F
1512360113.84,38256,3.38,72704.3,-15.53,-37.45,-36.73,0,*6C
1512360115.09,38257,3.38,72702.3,-15.53,-37.33,-36.49,0,*65
1512360116.32,38258,3.38,72702.5,-15.53,-37.33,-36.55,0,*67
1512360117.56,38259,3.38,72696.3,-15.53,-37.33,-36.49,0,*6B
1512360118.81,38260,3.38,72698.3,-15.53,-37.09,-36.19,0,*6D
1512360120.05,38261,3.38,72698.8,-15.53,-37.15,-36.49,0,*64
1512360121.3,38262,3.38,72702.5,-15.53,-37.33,-36.49,0,*63
1512360122.53,38263,3.38,72698.8,-15.53,-37.33,-36.55,0,*6F
1512360123.77,38264,3.38,72702.5,-15.53,-37.27,-36.37,0,*69
1512360125.03,38265,3.38,72700.0,-15.51,-37.45,-36.49,0,*67
1512360126.29,38266,3.38,72700.0,-15.53,-37.51,-36.55,0,*6E
1512360127.52,38267,3.38,72692.0,-15.53,-37.27,-36.55,0,*6E
1512360128.76,38268,3.38,72692.5,-15.53,-37.33,-36.49,0,*69
1512360129.99,38269,3.38,72698.8,-15.53,-37.45,-36.67,0,*65
1512360131.26,38270,3.38,72700.0,-15.53,-37.09,-36.37,0,*60
1512360132.49,38271,3.38,72694.5,-15.53,-36.67,-35.77,0,*6F
1512360133.73,38272,3.38,72696.3,-15.53,-36.19,-35.23,0,*64
1512360134.99,38273,3.38,72694.0,-15.53,-36.73,-35.83,0,*63
1512360136.26,38274,3.38,72698.3,-15.51,-36.91,-36.01,0,*63
1512360137.48,38275,3.38,72698.3,-15.49,-37.15,-36.31,0,*65
1512360138.73,38276,3.38,72702.5,-15.49,-37.15,-36.49,0,*69
1512360139.97,38277,3.38,72702.0,-15.49,-36.91,-36.19,0,*60
1512360141.22,38278,3.38,72698.8,-15.49,-36.79,-35.77,0,*62
1512360142.49,38279,3.38,72702.0,-15.49,-36.91,-36.13,0,*64
1512360143.76,38280,3.38,72694.8,-15.47,-36.61,-35.77,0,*62
1512360145.01,38281,3.38,72696.0,-15.49,-36.55,-35.65,0,*69
1512360146.26,38282,3.38,72696.3,-15.47,-36.73,-35.77,0,*63
1512360147.51,38283,3.38,72696.0,-15.49,-36.97,-36.13,0,*67
1512360148.75,38284,3.38,72698.8,-15.49,-37.27,-36.49,0,*65
1512360149.99,38285,3.38,72700.8,-15.49,-37.15,-36.37,0,*6C
1512360151.23,38286,3.38,72694.8,-15.49,-37.33,-36.37,0,*6B
1512360152.53,38287,3.38,72692.0,-15.47,-37.09,-36.25,0,*6E
1512360153.78,38288,3.38,72698.0,-15.49,-37.51,-36.55,0,*65
1512360155.02,38289,3.38,72704.5,-15.47,-37.03,-36.07,0,*6A
1512360156.28,38290,3.38,72700.0,-15.47,-36.61,-35.17,0,*65
1512360157.58,38291,3.38,72702.8,-15.47,-36.91,-35.53,0,*6B
1512360158.88,38292,3.38,72700.3,-15.47,-37.39,-35.95,0,*61
1512360160.14,38293,3.38,72698.0,-15.43,-37.39,-36.07,0,*6C
1512360161.38,38294,3.38,72702.3,-15.43,-37.33,-36.01,0,*67
1512360162.63,38295,3.38,72704.3,-15.45,-37.45,-36.25,0,*67
1512360163.84,38296,3.38,72700.3,-15.45,-37.57,-36.43,0,*67
1512360165.09,38297,3.38,72698.3,-15.43,-37.75,-36.55,0,*67
1512360166.33,38298,3.38,72698.0,-15.45,-37.63,-36.43,0,*6E
1512360167.54,38299,3.38,72694.5,-15.45,-37.33,-36.07,0,*6A
1512360168.81,38300,3.38,72692.3,-15.43,-37.39,-36.01,0,*61
1512360170.07,38301,3.38,72690.5,-15.43,-37.57,-36.37,0,*6D
1512360171.31,38302,3.38,72688.5,-15.43,-37.75,-36.67,0,*6B
1512360172.61,38303,3.38,72708.8,-15.43,-37.39,-35.95,0,*6C
1512360173.88,38304,3.38,72702.0,-15.43,-37.15,-35.83,0,*62
1512360175.13,38305,3.38,72700.0,-15.45,-37.39,-35.89,0,*61
1512360176.38,38306,3.38,72700.5,-15.43,-37.33,-36.01,0,*6D
1512360177.67,38307,3.38,72706.0,-15.43,-37.51,-36.25,0,*6E
1512360178.91,38308,3.38,72702.0,-15.43,-37.57,-36.19,0,*68
1512360180.17,38309,3.38,72706.5,-15.43,-37.69,-36.43,0,*6B
1512360181.42,38310,3.38,72702.5,-15.41,-37.69,-36.55,0,*66
1512360182.67,38311,3.38,72698.0,-15.41,-37.93,-36.67,0,*63
1512360183.94,38312,3.38,72686.5,-15.41,-37.99,-36.79,0,*65
1512360185.19,38313,3.38,72690.8,-15.43,-38.11,-36.85,0,*6A
1512360186.45,38314,3.38,72698.0,-15.43,-37.99,-36.85,0,*62
1512360187.7,38315,3.38,72706.3,-15.43,-37.75,-36.55,0,*6C
1512360188.96,38316,3.38,72692.3,-15.43,-37.51,-36.07,0,*6E
1512360190.21,38317,3.38,72682.5,-15.41,-37.39,-35.89,0,*66
1512360191.47,38318,3.38,72674.0,-15.41,-37.39,-35.89,0,*69
1512360192.73,38319,3.38,72676.0,-15.39,-36.79,-35.47,0,*60
1512360193.97,38320,3.44,72698.0,-15.41,-36.67,-35.23,0,*68
1512360195.21,38321,3.38,72704.0,-15.41,-37.15,-35.65,0,*6F
1512360196.48,38322,3.38,72708.0,-15.39,-37.45,-36.13,0,*64
1512360197.75,38323,3.38,72704.3,-15.39,-37.45,-35.95,0,*68
1512360198.99,38324,3.38,72704.3,-15.39,-37.45,-36.01,0,*61
1512360200.28,38325,3.38,72694.8,-15.39,-36.79,-35.41,0,*69
1512360201.52,38326,3.38,72700.8,-15.39,-36.97,-35.59,0,*63
1512360202.77,38327,3.38,72700.0,-15.37,-37.27,-35.83,0,*61
1512360204.0,38328,3.38,72696.8,-15.37,-37.45,-36.13,0,*60
1512360205.28,38329,3.38,72692.3,-15.35,-37.39,-35.89,0,*68
1512360206.55,38330,3.38,72698.5,-15.35,-37.09,-35.89,0,*63
1512360207.82,38331,3.38,72702.0,-15.35,-37.69,-36.43,0,*61
1512360209.06,38332,3.38,72700.3,-15.37,-37.69,-36.31,0,*65
1512360210.34,38333,3.38,72700.0,-15.35,-37.81,-36.55,0,*62
1512360211.63,38334,3.38,72700.0,-15.35,-37.39,-36.25,0,*61
1512360212.87,38335,3.38,72700.0,-15.35,-37.57,-36.31,0,*6D
1512360214.13,38336,3.38,72700.0,-15.35,-37.63,-36.31,0,*69
1512360215.41,38337,3.38,72702.3,-15.35,-37.69,-36.55,0,*60
1512360216.64,38338,3.38,72696.3,-15.37,-37.75,-36.49,0,*6D
1512360217.91,38339,3.38,72696.8,-15.35,-37.99,-36.67,0,*60
1512360219.17,38340,3.38,72700.3,-15.35,-37.99,-36.85,0,*62
1512360220.41,38341,3.38,72698.3,-15.35,-38.05,-36.85,0,*69
1512360221.65,38342,3.38,72692.3,-15.35,-38.17,-36.73,0,*60
1512360222.93,38343,3.38,72704.3,-15.35,-38.23,-36.91,0,*6A
1512360224.17,38344,3.38,72700.3,-15.37,-37.75,-36.49,0,*66
1512360225.4,38345,3.38,72694.8,-15.37,-37.15,-35.77,0,*6F
1512360226.69,38346,3.38,72688.5,-15.35,-36.91,-35.53,0,*65
1512360227.98,38347,3.38,72694.3,-15.35,-37.39,-35.95,0,*6D
1512360229.27,38348,3.38,72692.8,-15.35,-37.63,-36.13,0,*60
1512360230.54,38349,3.38,72692.3,-15.35,-37.69,-36.31,0,*6B
1512360231.8,38350,3.38,72696.8,-15.35,-37.69,-36.31,0,*63
1512360233.07,38351,3.38,72696.8,-15.29,-37.81,-36.49,0,*66
1512360234.32,38352,3.38,72694.0,-15.31,-37.87,-36.73,0,*63
1512360235.56,38353,3.38,72696.0,-15.31,-38.17,-36.85,0,*6D
1512360236.83,38354,3.38,72700.0,-15.31,-37.99,-36.67,0,*6F
1512360238.11,38355,3.38,72698.8,-15.31,-37.99,-36.55,0,*6F
1512360239.35,38356,3.38,72702.5,-15.31,-38.05,-36.73,0,*62
1512360240.61,38357,3.38,72702.3,-15.35,-37.99,-36.73,0,*6D
1512360241.86,38358,3.38,72702.5,-15.31,-38.17,-36.73,0,*6F
1512360243.07,38359,3.38,72704.0,-15.29,-38.05,-36.73,0,*64
1512360244.32,38360,3.38,72706.0,-15.29,-37.99,-36.67,0,*61
1512360245.56,38361,3.38,72706.0,-15.31,-38.05,-36.73,0,*66
1512360246.83,38362,3.38,72702.0,-15.31,-37.99,-36.73,0,*6F
1512360248.07,38363,3.38,72702.5,-15.31,-38.35,-37.03,0,*61
1512360249.36,38364,3.38,72706.5,-15.31,-38.23,-37.09,0,*6B
1512360250.6,38365,3.38,72704.8,-15.35,-38.17,-36.73,0,*65
1512360251.84,38366,3.38,72700.5,-15.35,-38.17,-36.73,0,*66
1512360253.08,38367,3.38,72700.3,-15.35,-38.17,-36.67,0,*62
1512360254.32,38368,3.38,72700.3,-15.35,-38.17,-36.85,0,*61
1512360255.56,38369,3.38,72700.3,-15.35,-38.05,-36.73,0,*6A
1512360256.82,38370,3.38,72700.0,-15.35,-37.99,-36.85,0,*61
1512360258.06,38371,3.38,72702.8,-15.35,-37.27,-35.89,0,*6A
1512360259.34,38372,3.38,72700.0,-15.31,-37.21,-35.77,0,*6A
1512360260.61,38373,3.38,72698.3,-15.31,-37.09,-35.71,0,*67
1512360261.89,38374,3.38,72702.0,-15.31,-37.27,-35.95,0,*66
1512360263.12,38375,3.38,72698.8,-15.27,-37.57,-36.07,0,*6F
1512360264.36,38376,3.38,72698.5,-15.29,-37.69,-36.19,0,*60
1512360265.59,38377,3.38,72696.8,-15.29,-37.75,-36.37,0,*60
1512360266.88,38378,3.38,72702.3,-15.27,-37.93,-36.61,0,*6A
1512360268.14,38379,3.38,72698.3,-15.29,-37.99,-36.61,0,*6F
1512360269.4,38380,3.38,72698.5,-15.29,-38.11,-36.79,0,*6F
1512360270.68,38381,3.38,72692.0,-15.29,-37.81,-36.61,0,*61
1512360271.93,38382,3.38,72696.3,-15.27,-37.75,-36.49,0,*6D
1512360273.2,38383,3.38,72698.3,-15.27,-37.99,-36.67,0,*62
1512360274.47,38384,3.38,72698.3,-15.27,-37.81,-36.67,0,*6C
1512360275.74,38385,3.38,72690.5,-15.29,-37.63,-36.49,0,*63
1512360277.0,38386,3.38,72690.5,-15.27,-37.93,-36.67,0,*6D
1512360278.28,38387,3.38,72692.5,-15.27,-38.11,-36.79,0,*66
1512360279.54,38388,3.38,72692.8,-15.27,-38.35,-36.79,0,*6F
1512360280.82,38389,3.38,72700.0,-15.27,-38.29,-36.79,0,*63
1512360282.09,38390,3.38,72696.8,-15.27,-37.99,-36.67,0,*60
1512360283.32,38391,3.38,72696.8,-15.27,-38.17,-36.85,0,*64
1512360284.6,38392,3.38,72694.5,-15.27,-38.11,-36.79,0,*62
1512360285.86,38393,3.38,72692.3,-15.27,-38.11,-36.67,0,*6C
1512360287.12,38394,3.38,72684.3,-15.27,-37.99,-36.67,0,*64
1512360288.39,38395,3.38,72688.5,-15.27,-38.11,-36.67,0,*6A
1512360289.67,38396,3.38,72688.0,-15.27,-37.93,-36.61,0,*6A
1512360290.96,38397,3.38,72684.0,-15.27,-37.93,-36.61,0,*6B
1512360292.22,38398,3.38,72690.5,-15.27,-38.29,-36.85,0,*60
1512360293.44,38399,3.38,72690.5,-15.25,-38.05,-36.55,0,*60
1512360294.68,38400,3.38,72696.0,-15.25,-37.69,-36.55,0,*62
1512360295.97,38401,3.38,72698.8,-15.27,-37.99,-36.61,0,*69
1512360297.23,38402,3.38,72696.5,-15.27,-37.93,-36.67,0,*66
1512360298.45,38403,3.38,72692.5,-15.25,-37.75,-36.43,0,*6B
1512360299.66,38404,3.38,72694.3,-15.25,-37.57,-36.31,0,*69
1512360300.91,38405,3.38,72688.8,-15.25,-37.51,-36.01,0,*6D
1512360302.16,38406,3.38,72692.5,-15.25,-37.27,-35.83,0,*66
1512360303.4,38407,3.38,72694.8,-15.23,-37.33,-35.95,0,*63
1512360304.65,38408,3.38,72684.3,-15.23,-37.51,-36.01,0,*66
1512360305.89,38409,3.38,72694.5,-15.23,-37.45,-36.13,0,*61
1512360307.13,38410,3.38,72702.8,-15.23,-37.69,-36.19,0,*6D
1512360308.37,38411,3.38,72702.0,-15.23,-37.09,-35.59,0,*6D
1512360309.64,38412,3.38,72696.5,-15.21,-35.71,-35.53,0,*6B
1512360310.89,38413,3.38,72692.3,-15.21,-35.89,-35.77,0,*6B
1512360312.13,38414,3.38,72694.5,-15.17,-36.19,-36.31,0,*62
1512360313.38,38415,3.38,72698.0,-15.17,-35.89,-35.89,0,*69
1512360314.62,38416,3.38,72706.5,-15.17,-36.19,-36.31,0,*60
1512360315.86,38417,3.38,72698.0,-15.17,-35.71,-35.47,0,*6E
1512360317.14,38418,3.38,72694.0,-15.17,-35.53,-35.35,0,*64
1512360318.39,38419,3.38,72698.8,-15.13,-36.01,-36.01,0,*61
1512360319.66,38420,3.38,72702.8,-15.13,-36.19,-35.83,0,*6B
1512360320.93,38421,3.38,72698.8,-15.13,-36.55,-36.13,0,*68
1512360322.22,38422,3.38,72698.0,-15.13,-36.37,-35.83,0,*65
1512360323.51,38423,3.38,72698.3,-15.09,-36.79,-36.37,0,*69
1512360324.77,38424,3.38,72702.5,-15.07,-36.91,-36.37,0,*66
1512360326.02,38425,3.38,72704.0,-15.09,-36.97,-36.55,0,*6B
1512360327.29,38426,3.38,72700.5,-15.09,-36.79,-36.43,0,*6F
1512360328.53,38427,3.38,72700.0,-15.09,-36.97,-36.43,0,*6E
1512360329.8,38428,3.38,72694.8,-15.09,-37.27,-36.79,0,*62
1512360331.06,38429,3.38,72702.0,-15.07,-37.51,-37.09,0,*6A
1512360332.32,38430,3.38,72702.5,-15.09,-37.15,-36.61,0,*63
1512360333.58,38431,3.38,72696.5,-15.09,-36.97,-36.55,0,*6E
1512360334.85,38432,3.38,72702.3,-15.09,-36.91,-36.43,0,*6C
1512360336.12,38433,3.38,72692.8,-15.09,-36.97,-36.61,0,*6B
1512360337.36,38434,3.38,72694.0,-15.07,-37.09,-36.67,0,*62
1512360338.6,38435,3.38,72690.3,-15.07,-37.21,-36.85,0,*65
1512360339.87,38436,3.38,72688.8,-15.09,-37.51,-37.15,0,*67
1512360341.16,38437,3.38,72690.0,-15.09,-37.51,-37.09,0,*6B
1512360342.4,38438,3.38,72694.8,-15.07,-37.27,-36.91,0,*6B
1512360343.66,38439,3.38,72690.8,-15.09,-37.39,-36.97,0,*6D
1512360344.9,38440,3.38,72686.5,-15.09,-37.27,-36.97,0,*6C
1512360346.16,38441,3.38,72690.0,-15.09,-37.69,-37.27,0,*6D
1512360347.4,38442,3.38,72686.8,-15.09,-37.75,-37.33,0,*66
1512360348.67,38443,3.38,72688.8,-15.09,-37.75,-37.39,0,*6D
1512360349.91,38444,3.38,72704.0,-15.09,-37.57,-37.15,0,*64
1512360351.18,38445,3.38,72702.8,-15.09,-37.51,-36.97,0,*68
1512360352.42,38446,3.38,72700.0,-15.09,-37.57,-37.15,0,*66
1512360353.69,38447,3.38,72694.5,-15.09,-37.39,-37.15,0,*6F
1512360354.98,38448,3.38,72694.8,-15.09,-37.51,-37.09,0,*63
1512360356.23,38449,3.38,72700.3,-15.09,-37.57,-37.15,0,*69
1512360357.44,38450,3.38,72702.0,-15.07,-37.27,-37.03,0,*6F
1512360358.71,38451,3.38,72702.3,-15.09,-37.51,-37.15,0,*66
1512360359.97,38452,3.38,72700.3,-15.09,-37.39,-36.97,0,*60
1512360361.24,38453,3.38,72698.3,-15.09,-37.33,-36.91,0,*6D
1512360362.5,38454,3.38,72698.3,-15.09,-37.33,-37.09,0,*6A
1512360363.76,38455,3.38,72692.8,-15.07,-37.51,-37.09,0,*61
1512360365.03,38456,3.38,72696.3,-15.07,-37.63,-37.21,0,*69
1512360366.29,38457,3.38,72694.5,-15.09,-37.93,-37.33,0,*6A
1512360367.53,38458,3.38,72698.5,-15.09,-37.75,-37.33,0,*6D
1512360368.77,38459,3.38,72700.0,-15.09,-37.57,-37.15,0,*68
1512360370.07,38460,3.38,72698.5,-15.09,-37.51,-37.09,0,*69
1512360371.33,38461,3.38,72696.8,-15.09,-37.51,-37.27,0,*64
1512360372.62,38462,3.38,72704.3,-15.09,-37.69,-37.39,0,*63
1512360373.89,38463,3.38,72698.0,-15.07,-37.51,-37.21,0,*6E
1512360375.13,38464,3.38,72692.5,-15.09,-37.57,-37.15,0,*66
1512360376.37,38465,3.38,72696.3,-15.07,-37.33,-36.91,0,*66
1512360377.63,38466,3.38,72696.0,-15.09,-37.69,-37.27,0,*68
1512360378.9,38467,3.38,72696.5,-15.13,-37.39,-36.73,0,*67
1512360380.13,38468,3.38,72702.3,-15.07,-36.85,-36.37,0,*6B
1512360381.41,38469,3.38,72698.8,-15.09,-36.37,-36.01,0,*68
1512360382.64,38470,3.38,72696.3,-15.07,-36.49,-36.07,0,*61
1512360383.91,38471,3.38,72696.3,-15.07,-35.95,-35.35,0,*60
1512360385.15,38472,3.38,72698.8,-15.07,-35.89,-35.35,0,*6E
1512360386.41,38473,3.38,72700.3,-15.05,-36.07,-35.53,0,*68
1512360387.64,38474,3.38,72702.8,-15.03,-36.31,-35.77,0,*6A
1512360388.91,38475,3.38,72702.0,-15.03,-36.37,-35.95,0,*61
1512360390.15,38476,3.38,72692.0,-14.99,-36.49,-36.01,0,*67
1512360391.42,38477,3.38,72696.0,-15.01,-36.85,-36.61,0,*60
1512360392.68,38478,3.38,72694.8,-15.01,-37.15,-36.79,0,*6E
1512360393.91,38479,3.38,72692.3,-14.99,-37.39,-36.85,0,*62
1512360395.15,38480,3.38,72690.3,-15.01,-37.45,-37.03,0,*60
1512360396.38,38481,3.38,72694.5,-15.01,-37.45,-37.03,0,*61
1512360397.63,38482,3.38,72688.5,-15.01,-37.57,-37.15,0,*66
1512360398.86,38483,3.38,72692.3,-14.99,-37.75,-37.21,0,*60
1512360400.1,38484,3.38,72694.0,-15.01,-37.75,-37.27,0,*61
1512360401.36,38485,3.38,72698.0,-14.99,-37.63,-37.21,0,*61
1512360402.6,38486,3.38,72698.8,-14.99,-37.39,-37.03,0,*6D
1512360403.81,38487,3.38,72694.0,-14.99,-37.27,-36.97,0,*6F
1512360405.07,38488,3.38,72696.8,-15.01,-37.57,-37.21,0,*6B
1512360406.28,38489,3.38,72706.5,-14.99,-37.75,-37.27,0,*6C
1512360407.57,38490,3.38,72698.8,-15.01,-37.93,-37.39,0,*63
1512360408.8,38491,3.38,72704.0,-15.01,-37.45,-36.97,0,*6C
1512360410.01,38492,3.38,72706.3,-14.99,-37.27,-36.97,0,*6B
1512360411.22,38493,3.38,72702.3,-14.99,-37.45,-36.97,0,*6E
1512360412.43,38494,3.38,72702.8,-14.99,-37.45,-36.97,0,*69
1512360413.67,38495,3.38,72700.8,-14.99,-37.39,-37.03,0,*6F
1512360414.87,38496,3.38,72688.3,-14.99,-37.45,-36.85,0,*68
1512360416.11,38497,3.38,72694.8,-14.99,-37.57,-37.21,0,*65
1512360417.32,38498,3.38,72690.5,-14.99,-37.57,-37.15,0,*6D
1512360418.56,38499,3.38,72700.3,-15.01,-37.75,-37.27,0,*6D
1512360419.79,38500,3.38,72700.0,-14.99,-37.39,-37.03,0,*62
1512360421.0,38501,3.38,72696.8,-14.99,-37.27,-36.85,0,*63
1512360422.21,38502,3.38,72698.0,-14.99,-37.45,-37.15,0,*6C
1512360423.45,38503,3.38,72702.3,-14.97,-37.87,-37.33,0,*69
1512360424.69,38504,3.38,72706.0,-14.97,-37.75,-37.33,0,*63
1512360425.95,38505,3.38,72702.5,-14.97,-37.33,-36.91,0,*69
1512360427.21,38506,3.38,72698.0,-14.97,-37.33,-36.91,0,*6A
1512360428.45,38507,3.38,72696.0,-14.99,-37.75,-37.39,0,*64
1512360429.71,38508,3.38,72698.5,-14.99,-37.93,-37.39,0,*63
1512360430.94,38509,3.38,72700.0,-14.99,-37.93,-37.27,0,*6D
1512360432.21,38510,3.38,72698.3,-14.99,-37.63,-37.21,0,*6C
1512360433.44,38511,3.38,72698.5,-14.97,-37.75,-37.33,0,*67
1512360434.71,38512,3.38,72698.0,-14.97,-38.05,-37.51,0,*68
1512360435.95,38513,3.38,72704.0,-14.97,-37.87,-37.33,0,*68
1512360437.21,38514,3.38,72702.8,-14.97,-37.15,-36.79,0,*6B
1512360438.44,38515,3.38,72698.3,-14.97,-37.33,-36.97,0,*6E
1512360439.69,38516,3.38,72700.5,-14.97,-37.15,-36.55,0,*67
1512360440.95,38517,3.38,72700.0,-14.97,-37.39,-36.97,0,*66
1512360442.24,38518,3.38,72696.5,-14.97,-37.51,-37.09,0,*61
1512360443.48,38519,3.38,72696.0,-14.97,-37.57,-37.15,0,*6B
1512360444.69,38520,3.38,72694.0,-14.95,-38.05,-37.57,0,*6D
1512360445.92,38521,3.38,72692.8,-14.95,-37.69,-37.33,0,*6B
1512360447.18,38522,3.38,72698.0,-14.95,-37.69,-37.21,0,*6B
1512360448.42,38523,3.38,72696.0,-14.97,-37.87,-37.33,0,*6B
1512360449.71,38524,3.38,72692.3,-14.97,-37.93,-37.39,0,*63
1512360450.92,38525,3.38,72692.8,-14.95,-37.75,-37.33,0,*62
1512360452.16,38526,3.38,72690.5,-14.95,-37.87,-37.39,0,*66
1512360453.36,38527,3.38,72696.5,-14.95,-38.05,-37.57,0,*6A
1512360454.63,38528,3.38,72708.8,-14.97,-37.69,-37.15,0,*64
1512360455.87,38529,3.38,72704.8,-14.95,-36.91,-36.43,0,*63
1512360457.12,38530,3.38,72700.8,-14.95,-36.91,-36.37,0,*68
1512360458.38,38531,3.38,72704.5,-14.95,-37.51,-36.91,0,*68
1512360459.61,38532,3.38,72702.0,-14.95,-37.57,-37.09,0,*6D
1512360460.87,38533,3.38,72702.0,-14.93,-37.69,-37.27,0,*6B
1512360462.16,38534,3.38,72706.0,-14.93,-37.51,-37.09,0,*6B
1512360463.41,38535,3.38,72702.0,-14.93,-37.45,-36.91,0,*6F
1512360464.65,38536,3.38,72702.0,-14.93,-37.15,-36.67,0,*60
1512360465.91,38537,3.38,72700.5,-14.93,-37.63,-37.15,0,*64
1512360467.17,38538,3.38,72700.5,-14.93,-37.51,-37.03,0,*6D
1512360468.41,38539,3.38,72702.5,-14.93,-37.87,-37.27,0,*61
1512360469.68,38540,3.38,72700.0,-14.93,-37.81,-37.27,0,*69
1512360470.94,38541,3.38,72702.8,-14.93,-37.81,-37.27,0,*68
1512360472.2,38542,3.38,72704.0,-14.93,-37.99,-37.45,0,*66
1512360473.43,38543,3.38,72706.3,-14.93,-37.87,-37.27,0,*6C
1512360474.69,38544,3.38,72702.0,-14.91,-37.99,-37.33,0,*63
1512360475.95,38545,3.38,72706.3,-14.93,-37.99,-37.45,0,*61
1512360477.24,38546,3.38,72704.5,-14.93,-37.99,-37.51,0,*67
1512360478.53,38547,3.38,72702.3,-14.93,-37.99,-37.51,0,*66
1512360479.79,38548,3.38,72700.8,-14.93,-38.17,-37.63,0,*61
1512360481.08,38549,3.38,72696.8,-14.93,-37.99,-37.51,0,*68
1512360482.35,38550,3.38,72702.8,-14.93,-37.81,-37.27,0,*68
1512360483.63,38551,3.38,72696.0,-14.93,-37.63,-37.09,0,*69
1512360484.89,38552,3.38,72688.3,-14.93,-37.99,-37.33,0,*66
1512360486.14,38553,3.38,72698.5,-14.95,-38.23,-37.69,0,*60
1512360487.41,38554,3.38,72702.3,-14.95,-37.93,-37.39,0,*66
1512360488.67,38555,3.38,72704.8,-14.95,-37.69,-37.21,0,*6B
1512360489.9,38556,3.38,72694.0,-14.93,-37.45,-37.03,0,*60
1512360491.16,38557,3.38,72696.8,-14.93,-37.81,-37.27,0,*6F
1512360492.42,38558,3.38,72694.3,-14.93,-37.69,-37.27,0,*66
1512360493.66,38559,3.38,72696.0,-14.93,-37.87,-37.33,0,*62
1512360494.89,38560,3.38,72692.8,-14.93,-37.87,-37.27,0,*6D
1512360496.16,38561,3.38,72694.0,-14.91,-38.17,-37.51,0,*69
1512360497.42,38562,3.38,72690.8,-14.91,-38.05,-37.51,0,*69
1512360498.69,38563,3.38,72694.8,-14.93,-38.23,-37.87,0,*65
1512360499.97,38564,3.38,72702.3,-14.93,-38.23,-37.81,0,*64